owner,sensor,date,latitude,longitude,vertical_datum,mass_concentration_of_oxygen_in_sea_water,qcFlag 
SCCF RECON,ioos:station:SCCF:13:1,2019-01-01T05:00:00Z,26.5255,-82.0032,2.519,4.8,1111122 
SCCF RECON,ioos:station:SCCF:13:1,2019-01-01T06:00:00Z,26.5255,-82.0032,2.405,4.85,1111122 
SCCF RECON,ioos:station:SCCF:13:1,2019-01-01T07:00:00Z,26.5255,-82.0032,2.305,4.64,1111122 
SCCF RECON,ioos:station:SCCF:13:1,2019-01-01T08:00:00Z,26.5255,-82.0032,2.22,4.59,1111122 
SCCF RECON,ioos:station:SCCF:13:1,2019-01-01T09:00:00Z,26.5255,-82.0032,2.133,4.54,1111122 
SCCF RECON,ioos:station:SCCF:13:1,2019-01-01T10:00:00Z,26.5255,-82.0032,2.09,4.57,1111122 
SCCF RECON,ioos:station:SCCF:13:1,2019-01-01T11:00:00Z,26.5255,-82.0032,2.13,4.51,1111122 
SCCF RECON,ioos:station:SCCF:13:1,2019-01-01T12:00:00Z,26.5255,-82.0032,2.23,4.5,1111122 
SCCF RECON,ioos:station:SCCF:13:1,2019-01-01T13:00:00Z,26.5255,-82.0032,2.29,4.37,1111122 
SCCF RECON,ioos:station:SCCF:13:1,2019-01-01T14:00:00Z,26.5255,-82.0032,2.325,4.12,1111122 
SCCF RECON,ioos:station:SCCF:13:1,2019-01-01T15:00:00Z,26.5255,-82.0032,2.371,4.3,1111122 
SCCF RECON,ioos:station:SCCF:13:1,2019-01-01T16:00:00Z,26.5255,-82.0032,2.408,4.38,1111122 
SCCF RECON,ioos:station:SCCF:13:1,2019-01-01T17:00:00Z,26.5255,-82.0032,2.41,4.43,1111122 
SCCF RECON,ioos:station:SCCF:13:1,2019-01-01T18:00:00Z,26.5255,-82.0032,2.372,4.46,1111122 
SCCF RECON,ioos:station:SCCF:13:1,2019-01-01T19:00:00Z,26.5255,-82.0032,2.33,4.35,1111122 
SCCF RECON,ioos:station:SCCF:13:1,2019-01-01T20:00:00Z,26.5255,-82.0032,2.291,4.41,1111122 
SCCF RECON,ioos:station:SCCF:13:1,2019-01-01T21:00:00Z,26.5255,-82.0032,2.268,4.86,1111122 
SCCF RECON,ioos:station:SCCF:13:1,2019-01-01T22:00:00Z,26.5255,-82.0032,2.31,4.84,1111122 
SCCF RECON,ioos:station:SCCF:13:1,2019-01-02T05:00:00Z,26.5255,-82.0032,2.5,4.51,1111122 
SCCF RECON,ioos:station:SCCF:13:1,2019-01-02T06:00:00Z,26.5255,-82.0032,2.38,4.3,1111122 
SCCF RECON,ioos:station:SCCF:13:1,2019-01-02T07:00:00Z,26.5255,-82.0032,2.26,4.42,1111122 
SCCF RECON,ioos:station:SCCF:13:1,2019-01-02T08:00:00Z,26.5255,-82.0032,2.18,4.39,1111122 
SCCF RECON,ioos:station:SCCF:13:1,2019-01-02T09:00:00Z,26.5255,-82.0032,2.1,4.5,1111122 
SCCF RECON,ioos:station:SCCF:13:1,2019-01-02T10:00:00Z,26.5255,-82.0032,2.03,4.55,1111122 
SCCF RECON,ioos:station:SCCF:13:1,2019-01-02T11:00:00Z,26.5255,-82.0032,2.0,4.53,1111122 
SCCF RECON,ioos:station:SCCF:13:1,2019-01-02T12:00:00Z,26.5255,-82.0032,2.06,4.48,1111122 
SCCF RECON,ioos:station:SCCF:13:1,2019-01-02T13:00:00Z,26.5255,-82.0032,2.17,4.43,1111122 
SCCF RECON,ioos:station:SCCF:13:1,2019-01-02T14:00:00Z,26.5255,-82.0032,2.23,4.38,1111122 
SCCF RECON,ioos:station:SCCF:13:1,2019-01-02T15:00:00Z,26.5255,-82.0032,2.292,4.05,1111122 
SCCF RECON,ioos:station:SCCF:13:1,2019-01-02T16:00:00Z,26.5255,-82.0032,2.345,4.21,1111122 
SCCF RECON,ioos:station:SCCF:13:1,2019-01-02T17:00:00Z,26.5255,-82.0032,2.367,4.32,1111122 
SCCF RECON,ioos:station:SCCF:13:1,2019-01-02T18:00:00Z,26.5255,-82.0032,2.36,4.4,1111122 
SCCF RECON,ioos:station:SCCF:13:1,2019-01-02T19:00:00Z,26.5255,-82.0032,2.315,4.56,1111122 
SCCF RECON,ioos:station:SCCF:13:1,2019-01-02T20:00:00Z,26.5255,-82.0032,2.303,4.64,1111122 
SCCF RECON,ioos:station:SCCF:13:1,2019-01-02T21:00:00Z,26.5255,-82.0032,2.305,4.44,1111122 
SCCF RECON,ioos:station:SCCF:13:1,2019-01-02T22:00:00Z,26.5255,-82.0032,2.304,4.5,1111122 
SCCF RECON,ioos:station:SCCF:13:1,2019-01-03T05:00:00Z,26.5255,-82.0032,2.58,4.4,1111122 
SCCF RECON,ioos:station:SCCF:13:1,2019-01-03T06:00:00Z,26.5255,-82.0032,2.498,4.29,1111122 
SCCF RECON,ioos:station:SCCF:13:1,2019-01-03T07:00:00Z,26.5255,-82.0032,2.37,4.28,1111122 
SCCF RECON,ioos:station:SCCF:13:1,2019-01-03T08:00:00Z,26.5255,-82.0032,2.27,4.26,1111122 
SCCF RECON,ioos:station:SCCF:13:1,2019-01-03T09:00:00Z,26.5255,-82.0032,2.176,4.4,1111122 
SCCF RECON,ioos:station:SCCF:13:1,2019-01-03T10:00:00Z,26.5255,-82.0032,2.084,4.41,1111122 
SCCF RECON,ioos:station:SCCF:13:1,2019-01-03T11:00:00Z,26.5255,-82.0032,2.002,4.55,1111122 
SCCF RECON,ioos:station:SCCF:13:1,2019-01-03T12:00:00Z,26.5255,-82.0032,1.99,4.5,1111122 
SCCF RECON,ioos:station:SCCF:13:1,2019-01-03T13:00:00Z,26.5255,-82.0032,2.059,4.46,1111122 
SCCF RECON,ioos:station:SCCF:13:1,2019-01-03T14:00:00Z,26.5255,-82.0032,2.18,4.5,1111122 
SCCF RECON,ioos:station:SCCF:13:1,2019-01-03T15:00:00Z,26.5255,-82.0032,2.239,4.56,1111122 
SCCF RECON,ioos:station:SCCF:13:1,2019-01-03T16:00:00Z,26.5255,-82.0032,2.273,4.31,1111122 
SCCF RECON,ioos:station:SCCF:13:1,2019-01-03T17:00:00Z,26.5255,-82.0032,2.319,4.39,1111122 
SCCF RECON,ioos:station:SCCF:13:1,2019-01-03T18:00:00Z,26.5255,-82.0032,2.319,4.32,1111122 
SCCF RECON,ioos:station:SCCF:13:1,2019-01-03T19:00:00Z,26.5255,-82.0032,2.31,4.48,1111122 
SCCF RECON,ioos:station:SCCF:13:1,2019-01-03T20:00:00Z,26.5255,-82.0032,2.31,4.52,1111122 
SCCF RECON,ioos:station:SCCF:13:1,2019-01-03T21:00:00Z,26.5255,-82.0032,2.28,4.41,1111122 
SCCF RECON,ioos:station:SCCF:13:1,2019-01-03T22:00:00Z,26.5255,-82.0032,2.24,4.28,1111122 
SCCF RECON,ioos:station:SCCF:13:1,2019-01-04T05:00:00Z,26.5255,-82.0032,2.58,4.24,1111122 
SCCF RECON,ioos:station:SCCF:13:1,2019-01-04T06:00:00Z,26.5255,-82.0032,2.53,4.09,1111122 
SCCF RECON,ioos:station:SCCF:13:1,2019-01-04T07:00:00Z,26.5255,-82.0032,2.428,3.98,1111122 
SCCF RECON,ioos:station:SCCF:13:1,2019-01-04T08:00:00Z,26.5255,-82.0032,2.318,3.98,1111122 
SCCF RECON,ioos:station:SCCF:13:1,2019-01-04T09:00:00Z,26.5255,-82.0032,2.22,4.0,1111122 
SCCF RECON,ioos:station:SCCF:13:1,2019-01-04T10:00:00Z,26.5255,-82.0032,2.13,4.11,1111122 
SCCF RECON,ioos:station:SCCF:13:1,2019-01-04T11:00:00Z,26.5255,-82.0032,2.043,4.22,1111122 
SCCF RECON,ioos:station:SCCF:13:1,2019-01-04T12:00:00Z,26.5255,-82.0032,1.983,4.28,1111122 
SCCF RECON,ioos:station:SCCF:13:1,2019-01-04T13:00:00Z,26.5255,-82.0032,2.02,4.27,1111122 
SCCF RECON,ioos:station:SCCF:13:1,2019-01-04T14:00:00Z,26.5255,-82.0032,2.147,4.29,1111122 
SCCF RECON,ioos:station:SCCF:13:1,2019-01-04T15:00:00Z,26.5255,-82.0032,2.26,4.18,1111122 
SCCF RECON,ioos:station:SCCF:13:1,2019-01-04T16:00:00Z,26.5255,-82.0032,2.34,4.22,1111122 
SCCF RECON,ioos:station:SCCF:13:1,2019-01-04T17:00:00Z,26.5255,-82.0032,2.4,4.14,1111122 
SCCF RECON,ioos:station:SCCF:13:1,2019-01-04T18:00:00Z,26.5255,-82.0032,2.436,4.18,1111122 
SCCF RECON,ioos:station:SCCF:13:1,2019-01-04T19:00:00Z,26.5255,-82.0032,2.454,4.29,1111122 
SCCF RECON,ioos:station:SCCF:13:1,2019-01-04T20:00:00Z,26.5255,-82.0032,2.45,4.36,1111122 
SCCF RECON,ioos:station:SCCF:13:1,2019-01-04T21:00:00Z,26.5255,-82.0032,2.423,4.81,1111122 
SCCF RECON,ioos:station:SCCF:13:1,2019-01-04T22:00:00Z,26.5255,-82.0032,2.41,4.67,1111122 
SCCF RECON,ioos:station:SCCF:13:1,2019-01-05T05:00:00Z,26.5255,-82.0032,2.643,4.1,1111122 
SCCF RECON,ioos:station:SCCF:13:1,2019-01-05T06:00:00Z,26.5255,-82.0032,2.62,3.91,1111122 
SCCF RECON,ioos:station:SCCF:13:1,2019-01-05T07:00:00Z,26.5255,-82.0032,2.52,3.73,1111122 
SCCF RECON,ioos:station:SCCF:13:1,2019-01-05T08:00:00Z,26.5255,-82.0032,2.39,3.82,1111122 
SCCF RECON,ioos:station:SCCF:13:1,2019-01-05T09:00:00Z,26.5255,-82.0032,2.3,3.82,1111122 
SCCF RECON,ioos:station:SCCF:13:1,2019-01-05T10:00:00Z,26.5255,-82.0032,2.21,3.81,1111122 
SCCF RECON,ioos:station:SCCF:13:1,2019-01-05T11:00:00Z,26.5255,-82.0032,2.123,3.97,1111122 
SCCF RECON,ioos:station:SCCF:13:1,2019-01-05T12:00:00Z,26.5255,-82.0032,2.044,4.06,1111122 
SCCF RECON,ioos:station:SCCF:13:1,2019-01-05T13:00:00Z,26.5255,-82.0032,1.994,4.08,1111122 
SCCF RECON,ioos:station:SCCF:13:1,2019-01-05T14:00:00Z,26.5255,-82.0032,2.03,4.14,1111122 
SCCF RECON,ioos:station:SCCF:13:1,2019-01-05T15:00:00Z,26.5255,-82.0032,2.161,4.3,1111122 
SCCF RECON,ioos:station:SCCF:13:1,2019-01-05T16:00:00Z,26.5255,-82.0032,2.277,4.14,1111122 
SCCF RECON,ioos:station:SCCF:13:1,2019-01-05T17:00:00Z,26.5255,-82.0032,2.337,4.23,1111122 
SCCF RECON,ioos:station:SCCF:13:1,2019-01-05T18:00:00Z,26.5255,-82.0032,2.384,4.02,1111122 
SCCF RECON,ioos:station:SCCF:13:1,2019-01-05T19:00:00Z,26.5255,-82.0032,2.381,4.05,1111122 
SCCF RECON,ioos:station:SCCF:13:1,2019-01-05T20:00:00Z,26.5255,-82.0032,2.33,4.03,1111122 
SCCF RECON,ioos:station:SCCF:13:1,2019-01-05T21:00:00Z,26.5255,-82.0032,2.28,3.99,1111122 
SCCF RECON,ioos:station:SCCF:13:1,2019-01-05T22:00:00Z,26.5255,-82.0032,2.26,4.27,1111122 
SCCF RECON,ioos:station:SCCF:13:1,2019-01-06T05:00:00Z,26.5255,-82.0032,2.55,4.26,1111122 
SCCF RECON,ioos:station:SCCF:13:1,2019-01-06T06:00:00Z,26.5255,-82.0032,2.53,4.21,1111122 
SCCF RECON,ioos:station:SCCF:13:1,2019-01-06T07:00:00Z,26.5255,-82.0032,2.45,4.13,1111122 
SCCF RECON,ioos:station:SCCF:13:1,2019-01-06T08:00:00Z,26.5255,-82.0032,2.34,4.16,1111122 
SCCF RECON,ioos:station:SCCF:13:1,2019-01-06T09:00:00Z,26.5255,-82.0032,2.25,4.01,1111122 
SCCF RECON,ioos:station:SCCF:13:1,2019-01-06T10:00:00Z,26.5255,-82.0032,2.17,4.02,1111122 
SCCF RECON,ioos:station:SCCF:13:1,2019-01-06T11:00:00Z,26.5255,-82.0032,2.078,4.24,1111122 
SCCF RECON,ioos:station:SCCF:13:1,2019-01-06T12:00:00Z,26.5255,-82.0032,1.99,4.43,1111122 
SCCF RECON,ioos:station:SCCF:13:1,2019-01-06T13:00:00Z,26.5255,-82.0032,1.92,4.32,1111122 
SCCF RECON,ioos:station:SCCF:13:1,2019-01-06T14:00:00Z,26.5255,-82.0032,1.9,4.43,1111122 
SCCF RECON,ioos:station:SCCF:13:1,2019-01-06T15:00:00Z,26.5255,-82.0032,1.971,4.6,1111122 
SCCF RECON,ioos:station:SCCF:13:1,2019-01-06T16:00:00Z,26.5255,-82.0032,2.078,4.69,1111122 
SCCF RECON,ioos:station:SCCF:13:1,2019-01-06T17:00:00Z,26.5255,-82.0032,2.179,4.84,1111122 
SCCF RECON,ioos:station:SCCF:13:1,2019-01-06T18:00:00Z,26.5255,-82.0032,2.236,4.8,1111122 
SCCF RECON,ioos:station:SCCF:13:1,2019-01-06T19:00:00Z,26.5255,-82.0032,2.281,4.55,1111122 
SCCF RECON,ioos:station:SCCF:13:1,2019-01-06T20:00:00Z,26.5255,-82.0032,2.31,4.64,1111122 
SCCF RECON,ioos:station:SCCF:13:1,2019-01-06T21:00:00Z,26.5255,-82.0032,2.29,4.59,1111122 
SCCF RECON,ioos:station:SCCF:13:1,2019-01-06T22:00:00Z,26.5255,-82.0032,2.236,4.53,1111122 
SCCF RECON,ioos:station:SCCF:13:1,2019-01-07T05:00:00Z,26.5255,-82.0032,2.55,4.16,1111122 
SCCF RECON,ioos:station:SCCF:13:1,2019-01-07T06:00:00Z,26.5255,-82.0032,2.57,4.07,1111122 
SCCF RECON,ioos:station:SCCF:13:1,2019-01-07T09:00:00Z,26.5255,-82.0032,2.37,3.86,1111122 
SCCF RECON,ioos:station:SCCF:13:1,2019-01-07T10:00:00Z,26.5255,-82.0032,2.279,4.26,1111122 
SCCF RECON,ioos:station:SCCF:13:1,2019-01-07T11:00:00Z,26.5255,-82.0032,2.2,4.47,1111122 
SCCF RECON,ioos:station:SCCF:13:1,2019-01-07T12:00:00Z,26.5255,-82.0032,2.12,4.4,1111122 
SCCF RECON,ioos:station:SCCF:13:1,2019-01-07T13:00:00Z,26.5255,-82.0032,2.04,4.42,1111122 
SCCF RECON,ioos:station:SCCF:13:1,2019-01-07T14:00:00Z,26.5255,-82.0032,2.01,4.56,1111122 
SCCF RECON,ioos:station:SCCF:13:1,2019-01-07T15:00:00Z,26.5255,-82.0032,2.09,4.69,1111122 
SCCF RECON,ioos:station:SCCF:13:1,2019-01-07T16:00:00Z,26.5255,-82.0032,2.22,4.77,1111122 
SCCF RECON,ioos:station:SCCF:13:1,2019-01-07T17:00:00Z,26.5255,-82.0032,2.296,5.0,1111122 
SCCF RECON,ioos:station:SCCF:13:1,2019-01-07T18:00:00Z,26.5255,-82.0032,2.34,4.6,1111122 
SCCF RECON,ioos:station:SCCF:13:1,2019-01-07T19:00:00Z,26.5255,-82.0032,2.39,4.61,1111122 
SCCF RECON,ioos:station:SCCF:13:1,2019-01-07T20:00:00Z,26.5255,-82.0032,2.417,4.81,1111122 
SCCF RECON,ioos:station:SCCF:13:1,2019-01-07T21:00:00Z,26.5255,-82.0032,2.417,4.78,1111122 
SCCF RECON,ioos:station:SCCF:13:1,2019-01-07T22:00:00Z,26.5255,-82.0032,2.38,4.82,1111122 
SCCF RECON,ioos:station:SCCF:13:1,2019-01-08T05:00:00Z,26.5255,-82.0032,2.55,4.64,1111122 
SCCF RECON,ioos:station:SCCF:13:1,2019-01-08T06:00:00Z,26.5255,-82.0032,2.57,4.54,1111122 
SCCF RECON,ioos:station:SCCF:13:1,2019-01-08T07:00:00Z,26.5255,-82.0032,2.57,4.11,1111122 
SCCF RECON,ioos:station:SCCF:13:1,2019-01-08T08:00:00Z,26.5255,-82.0032,2.52,4.03,1111122 
SCCF RECON,ioos:station:SCCF:13:1,2019-01-08T09:00:00Z,26.5255,-82.0032,2.44,3.99,1111122 
SCCF RECON,ioos:station:SCCF:13:1,2019-01-08T10:00:00Z,26.5255,-82.0032,2.34,4.12,1111122 
SCCF RECON,ioos:station:SCCF:13:1,2019-01-08T11:00:00Z,26.5255,-82.0032,2.257,4.37,1111122 
SCCF RECON,ioos:station:SCCF:13:1,2019-01-08T12:00:00Z,26.5255,-82.0032,2.18,4.43,1111122 
SCCF RECON,ioos:station:SCCF:13:1,2019-01-08T13:00:00Z,26.5255,-82.0032,2.11,4.57,1111122 
SCCF RECON,ioos:station:SCCF:13:1,2019-01-08T14:00:00Z,26.5255,-82.0032,2.06,4.65,1111122 
SCCF RECON,ioos:station:SCCF:13:1,2019-01-08T15:00:00Z,26.5255,-82.0032,2.07,4.82,1111122 
SCCF RECON,ioos:station:SCCF:13:1,2019-01-08T16:00:00Z,26.5255,-82.0032,2.21,4.97,1111122 
SCCF RECON,ioos:station:SCCF:13:1,2019-01-08T17:00:00Z,26.5255,-82.0032,2.311,4.91,1111122 
SCCF RECON,ioos:station:SCCF:13:1,2019-01-08T18:00:00Z,26.5255,-82.0032,2.367,4.86,1111122 
SCCF RECON,ioos:station:SCCF:13:1,2019-01-08T19:00:00Z,26.5255,-82.0032,2.42,4.64,1111122 
SCCF RECON,ioos:station:SCCF:13:1,2019-01-08T20:00:00Z,26.5255,-82.0032,2.47,4.84,1111122 
SCCF RECON,ioos:station:SCCF:13:1,2019-01-08T21:00:00Z,26.5255,-82.0032,2.489,4.87,1111122 
SCCF RECON,ioos:station:SCCF:13:1,2019-01-08T22:00:00Z,26.5255,-82.0032,2.45,4.99,1111122 
SCCF RECON,ioos:station:SCCF:13:1,2019-01-09T05:00:00Z,26.5255,-82.0032,2.552,4.48,1111122 
SCCF RECON,ioos:station:SCCF:13:1,2019-01-09T06:00:00Z,26.5255,-82.0032,2.59,4.71,1111122 
SCCF RECON,ioos:station:SCCF:13:1,2019-01-09T07:00:00Z,26.5255,-82.0032,2.6,4.62,1111122 
SCCF RECON,ioos:station:SCCF:13:1,2019-01-09T08:00:00Z,26.5255,-82.0032,2.57,4.4,1111122 
SCCF RECON,ioos:station:SCCF:13:1,2019-01-09T09:00:00Z,26.5255,-82.0032,2.491,4.09,1111122 
SCCF RECON,ioos:station:SCCF:13:1,2019-01-09T10:00:00Z,26.5255,-82.0032,2.39,4.23,1111122 
SCCF RECON,ioos:station:SCCF:13:1,2019-01-09T11:00:00Z,26.5255,-82.0032,2.292,4.68,1111122 
SCCF RECON,ioos:station:SCCF:13:1,2019-01-09T12:00:00Z,26.5255,-82.0032,2.21,4.64,1111122 
SCCF RECON,ioos:station:SCCF:13:1,2019-01-09T13:00:00Z,26.5255,-82.0032,2.128,4.83,1111122 
SCCF RECON,ioos:station:SCCF:13:1,2019-01-09T14:00:00Z,26.5255,-82.0032,2.05,4.71,1111122 
SCCF RECON,ioos:station:SCCF:13:1,2019-01-09T17:00:00Z,26.5255,-82.0032,2.12,5.23,1111122 
SCCF RECON,ioos:station:SCCF:13:1,2019-01-09T19:00:00Z,26.5255,-82.0032,2.26,5.39,1111122 
SCCF RECON,ioos:station:SCCF:13:1,2019-01-09T20:00:00Z,26.5255,-82.0032,2.29,4.92,1111122 
SCCF RECON,ioos:station:SCCF:13:1,2019-01-09T21:00:00Z,26.5255,-82.0032,2.3,4.97,1111122 
SCCF RECON,ioos:station:SCCF:13:1,2019-01-09T22:00:00Z,26.5255,-82.0032,2.28,5.11,1111122 
SCCF RECON,ioos:station:SCCF:13:1,2019-01-10T05:00:00Z,26.5255,-82.0032,2.33,4.32,1111122 
SCCF RECON,ioos:station:SCCF:13:1,2019-01-10T06:00:00Z,26.5255,-82.0032,2.386,4.55,1111122 
SCCF RECON,ioos:station:SCCF:13:1,2019-01-10T07:00:00Z,26.5255,-82.0032,2.43,4.83,1111122 
SCCF RECON,ioos:station:SCCF:13:1,2019-01-10T08:00:00Z,26.5255,-82.0032,2.426,4.74,1111122 
SCCF RECON,ioos:station:SCCF:13:1,2019-01-10T09:00:00Z,26.5255,-82.0032,2.37,4.55,1111122 
SCCF RECON,ioos:station:SCCF:13:1,2019-01-10T10:00:00Z,26.5255,-82.0032,2.29,4.73,1111122 
SCCF RECON,ioos:station:SCCF:13:1,2019-01-10T11:00:00Z,26.5255,-82.0032,2.21,4.66,1111122 
SCCF RECON,ioos:station:SCCF:13:1,2019-01-10T12:00:00Z,26.5255,-82.0032,2.14,4.8,1111122 
SCCF RECON,ioos:station:SCCF:13:1,2019-01-10T13:00:00Z,26.5255,-82.0032,2.07,4.8,1111122 
SCCF RECON,ioos:station:SCCF:13:1,2019-01-10T14:00:00Z,26.5255,-82.0032,2.01,5.11,1111122 
SCCF RECON,ioos:station:SCCF:13:1,2019-01-10T15:00:00Z,26.5255,-82.0032,1.948,5.5,1111122 
SCCF RECON,ioos:station:SCCF:13:1,2019-01-10T16:00:00Z,26.5255,-82.0032,1.919,5.59,1111122 
SCCF RECON,ioos:station:SCCF:13:1,2019-01-10T17:00:00Z,26.5255,-82.0032,2.01,5.73,1111122 
SCCF RECON,ioos:station:SCCF:13:1,2019-01-10T18:00:00Z,26.5255,-82.0032,2.12,5.64,1111122 
SCCF RECON,ioos:station:SCCF:13:1,2019-01-10T19:00:00Z,26.5255,-82.0032,2.19,5.78,1111122 
SCCF RECON,ioos:station:SCCF:13:1,2019-01-10T20:00:00Z,26.5255,-82.0032,2.24,5.45,1111122 
SCCF RECON,ioos:station:SCCF:13:1,2019-01-10T21:00:00Z,26.5255,-82.0032,2.3,5.52,1111122 
SCCF RECON,ioos:station:SCCF:13:1,2019-01-10T22:00:00Z,26.5255,-82.0032,2.333,5.63,1111122 
SCCF RECON,ioos:station:SCCF:13:1,2019-01-11T05:00:00Z,26.5255,-82.0032,2.34,4.94,1111122 
SCCF RECON,ioos:station:SCCF:13:1,2019-01-11T06:00:00Z,26.5255,-82.0032,2.41,5.24,1111122 
SCCF RECON,ioos:station:SCCF:13:1,2019-01-11T07:00:00Z,26.5255,-82.0032,2.457,5.34,1111122 
SCCF RECON,ioos:station:SCCF:13:1,2019-01-11T08:00:00Z,26.5255,-82.0032,2.47,5.25,1111122 
SCCF RECON,ioos:station:SCCF:13:1,2019-01-11T09:00:00Z,26.5255,-82.0032,2.46,5.04,1111122 
SCCF RECON,ioos:station:SCCF:13:1,2019-01-11T10:00:00Z,26.5255,-82.0032,2.441,4.88,1111122 
SCCF RECON,ioos:station:SCCF:13:1,2019-01-11T11:00:00Z,26.5255,-82.0032,2.4,4.55,1111122 
SCCF RECON,ioos:station:SCCF:13:1,2019-01-11T12:00:00Z,26.5255,-82.0032,2.31,5.0,1111122 
SCCF RECON,ioos:station:SCCF:13:1,2019-01-11T13:00:00Z,26.5255,-82.0032,2.23,5.63,1111122 
SCCF RECON,ioos:station:SCCF:13:1,2019-01-11T14:00:00Z,26.5255,-82.0032,2.18,5.54,1111122 
SCCF RECON,ioos:station:SCCF:13:1,2019-01-11T15:00:00Z,26.5255,-82.0032,2.132,5.81,1111122 
SCCF RECON,ioos:station:SCCF:13:1,2019-01-11T16:00:00Z,26.5255,-82.0032,2.1,6.08,1111122 
SCCF RECON,ioos:station:SCCF:13:1,2019-01-11T17:00:00Z,26.5255,-82.0032,2.15,5.98,1111122 
SCCF RECON,ioos:station:SCCF:13:1,2019-01-11T18:00:00Z,26.5255,-82.0032,2.239,5.84,1111122 
SCCF RECON,ioos:station:SCCF:13:1,2019-01-11T19:00:00Z,26.5255,-82.0032,2.316,6.18,1111122 
SCCF RECON,ioos:station:SCCF:13:1,2019-01-11T20:00:00Z,26.5255,-82.0032,2.373,5.81,1111122 
SCCF RECON,ioos:station:SCCF:13:1,2019-01-11T21:00:00Z,26.5255,-82.0032,2.43,5.73,1111122 
SCCF RECON,ioos:station:SCCF:13:1,2019-01-11T22:00:00Z,26.5255,-82.0032,2.478,6.15,1111122 
SCCF RECON,ioos:station:SCCF:13:1,2019-01-12T05:00:00Z,26.5255,-82.0032,2.311,5.85,1111122 
SCCF RECON,ioos:station:SCCF:13:1,2019-01-12T06:00:00Z,26.5255,-82.0032,2.37,5.68,1111122 
SCCF RECON,ioos:station:SCCF:13:1,2019-01-12T07:00:00Z,26.5255,-82.0032,2.43,5.26,1111122 
SCCF RECON,ioos:station:SCCF:13:1,2019-01-12T08:00:00Z,26.5255,-82.0032,2.46,5.42,1111122 
SCCF RECON,ioos:station:SCCF:13:1,2019-01-12T09:00:00Z,26.5255,-82.0032,2.48,5.44,1111122 
SCCF RECON,ioos:station:SCCF:13:1,2019-01-12T10:00:00Z,26.5255,-82.0032,2.49,5.51,1111122 
SCCF RECON,ioos:station:SCCF:13:1,2019-01-12T11:00:00Z,26.5255,-82.0032,2.46,5.49,1111122 
SCCF RECON,ioos:station:SCCF:13:1,2019-01-12T12:00:00Z,26.5255,-82.0032,2.4,5.51,1111122 
SCCF RECON,ioos:station:SCCF:13:1,2019-01-12T13:00:00Z,26.5255,-82.0032,2.32,5.44,1111122 
SCCF RECON,ioos:station:SCCF:13:1,2019-01-12T14:00:00Z,26.5255,-82.0032,2.26,5.7,1111122 
SCCF RECON,ioos:station:SCCF:13:1,2019-01-12T15:00:00Z,26.5255,-82.0032,2.21,5.85,1111122 
SCCF RECON,ioos:station:SCCF:13:1,2019-01-12T16:00:00Z,26.5255,-82.0032,2.17,5.95,1111122 
SCCF RECON,ioos:station:SCCF:13:1,2019-01-12T17:00:00Z,26.5255,-82.0032,2.192,6.04,1111122 
SCCF RECON,ioos:station:SCCF:13:1,2019-01-12T18:00:00Z,26.5255,-82.0032,2.276,5.92,1111122 
SCCF RECON,ioos:station:SCCF:13:1,2019-01-12T19:00:00Z,26.5255,-82.0032,2.345,5.95,1111122 
SCCF RECON,ioos:station:SCCF:13:1,2019-01-12T20:00:00Z,26.5255,-82.0032,2.41,5.91,1111122 
SCCF RECON,ioos:station:SCCF:13:1,2019-01-12T21:00:00Z,26.5255,-82.0032,2.48,5.77,1111122 
SCCF RECON,ioos:station:SCCF:13:1,2019-01-12T22:00:00Z,26.5255,-82.0032,2.55,6.17,1111122 
SCCF RECON,ioos:station:SCCF:13:1,2019-01-13T05:00:00Z,26.5255,-82.0032,2.35,5.83,1111122 
SCCF RECON,ioos:station:SCCF:13:1,2019-01-13T06:00:00Z,26.5255,-82.0032,2.332,5.88,1111122 
SCCF RECON,ioos:station:SCCF:13:1,2019-01-13T07:00:00Z,26.5255,-82.0032,2.37,5.7,1111122 
SCCF RECON,ioos:station:SCCF:13:1,2019-01-13T08:00:00Z,26.5255,-82.0032,2.43,5.45,1111122 
SCCF RECON,ioos:station:SCCF:13:1,2019-01-13T09:00:00Z,26.5255,-82.0032,2.479,5.25,1111122 
SCCF RECON,ioos:station:SCCF:13:1,2019-01-13T10:00:00Z,26.5255,-82.0032,2.51,5.3,1111122 
SCCF RECON,ioos:station:SCCF:13:1,2019-01-13T11:00:00Z,26.5255,-82.0032,2.52,5.43,1111122 
SCCF RECON,ioos:station:SCCF:13:1,2019-01-13T12:00:00Z,26.5255,-82.0032,2.5,5.41,1111122 
SCCF RECON,ioos:station:SCCF:13:1,2019-01-13T13:00:00Z,26.5255,-82.0032,2.45,5.4,1111122 
SCCF RECON,ioos:station:SCCF:13:1,2019-01-13T14:00:00Z,26.5255,-82.0032,2.37,5.47,1111122 
SCCF RECON,ioos:station:SCCF:13:1,2019-01-13T15:00:00Z,26.5255,-82.0032,2.301,5.63,1111122 
SCCF RECON,ioos:station:SCCF:13:1,2019-01-13T16:00:00Z,26.5255,-82.0032,2.26,5.82,1111122 
SCCF RECON,ioos:station:SCCF:13:1,2019-01-13T17:00:00Z,26.5255,-82.0032,2.23,5.85,1111122 
SCCF RECON,ioos:station:SCCF:13:1,2019-01-13T18:00:00Z,26.5255,-82.0032,2.222,6.04,1111122 
SCCF RECON,ioos:station:SCCF:13:1,2019-01-13T19:00:00Z,26.5255,-82.0032,2.263,6.39,1111122 
SCCF RECON,ioos:station:SCCF:13:1,2019-01-13T20:00:00Z,26.5255,-82.0032,2.34,6.16,1111122 
SCCF RECON,ioos:station:SCCF:13:1,2019-01-13T21:00:00Z,26.5255,-82.0032,2.423,6.35,1111122 
SCCF RECON,ioos:station:SCCF:13:1,2019-01-13T22:00:00Z,26.5255,-82.0032,2.489,5.96,1111122 
SCCF RECON,ioos:station:SCCF:13:1,2019-01-14T05:00:00Z,26.5255,-82.0032,2.28,6.01,1111122 
SCCF RECON,ioos:station:SCCF:13:1,2019-01-14T06:00:00Z,26.5255,-82.0032,2.24,6.0,1111122 
SCCF RECON,ioos:station:SCCF:13:1,2019-01-14T07:00:00Z,26.5255,-82.0032,2.23,6.03,1111122 
SCCF RECON,ioos:station:SCCF:13:1,2019-01-14T08:00:00Z,26.5255,-82.0032,2.252,6.11,1111122 
SCCF RECON,ioos:station:SCCF:13:1,2019-01-14T09:00:00Z,26.5255,-82.0032,2.329,5.81,1111122 
SCCF RECON,ioos:station:SCCF:13:1,2019-01-14T10:00:00Z,26.5255,-82.0032,2.36,5.31,1111122 
SCCF RECON,ioos:station:SCCF:13:1,2019-01-14T11:00:00Z,26.5255,-82.0032,2.37,5.37,1111122 
SCCF RECON,ioos:station:SCCF:13:1,2019-01-14T12:00:00Z,26.5255,-82.0032,2.38,5.36,1111122 
SCCF RECON,ioos:station:SCCF:13:1,2019-01-14T13:00:00Z,26.5255,-82.0032,2.36,5.29,1111122 
SCCF RECON,ioos:station:SCCF:13:1,2019-01-14T14:00:00Z,26.5255,-82.0032,2.32,5.27,1111122 
SCCF RECON,ioos:station:SCCF:13:1,2019-01-14T15:00:00Z,26.5255,-82.0032,2.277,5.63,1111122 
SCCF RECON,ioos:station:SCCF:13:1,2019-01-14T16:00:00Z,26.5255,-82.0032,2.229,5.8,1111122 
SCCF RECON,ioos:station:SCCF:13:1,2019-01-14T17:00:00Z,26.5255,-82.0032,2.199,6.11,1111122 
SCCF RECON,ioos:station:SCCF:13:1,2019-01-14T18:00:00Z,26.5255,-82.0032,2.16,6.27,1111122 
SCCF RECON,ioos:station:SCCF:13:1,2019-01-14T19:00:00Z,26.5255,-82.0032,2.14,6.54,1111122 
SCCF RECON,ioos:station:SCCF:13:1,2019-01-14T20:00:00Z,26.5255,-82.0032,2.175,6.6,1111122 
SCCF RECON,ioos:station:SCCF:13:1,2019-01-14T21:00:00Z,26.5255,-82.0032,2.25,6.36,1111122 
SCCF RECON,ioos:station:SCCF:13:1,2019-01-14T23:00:00Z,26.5255,-82.0032,2.37,6.56,1111122 
SCCF RECON,ioos:station:SCCF:13:1,2019-01-15T05:00:00Z,26.5255,-82.0032,2.16,5.53,1111122 
SCCF RECON,ioos:station:SCCF:13:1,2019-01-15T06:00:00Z,26.5255,-82.0032,2.1,5.77,1111122 
SCCF RECON,ioos:station:SCCF:13:1,2019-01-15T07:00:00Z,26.5255,-82.0032,2.04,5.49,1111122 
SCCF RECON,ioos:station:SCCF:13:1,2019-01-15T08:00:00Z,26.5255,-82.0032,2.02,5.95,1111122 
SCCF RECON,ioos:station:SCCF:13:1,2019-01-15T09:00:00Z,26.5255,-82.0032,2.05,6.03,1111122 
SCCF RECON,ioos:station:SCCF:13:1,2019-01-15T10:00:00Z,26.5255,-82.0032,2.11,6.0,1111122 
SCCF RECON,ioos:station:SCCF:13:1,2019-01-15T11:00:00Z,26.5255,-82.0032,2.16,5.81,1111122 
SCCF RECON,ioos:station:SCCF:13:1,2019-01-15T12:00:00Z,26.5255,-82.0032,2.21,5.39,1111122 
SCCF RECON,ioos:station:SCCF:13:1,2019-01-15T13:00:00Z,26.5255,-82.0032,2.268,5.31,1111122 
SCCF RECON,ioos:station:SCCF:13:1,2019-01-15T14:00:00Z,26.5255,-82.0032,2.27,5.47,1111122 
SCCF RECON,ioos:station:SCCF:13:1,2019-01-15T16:00:00Z,26.5255,-82.0032,2.231,5.03,1111122 
SCCF RECON,ioos:station:SCCF:13:1,2019-01-15T17:00:00Z,26.5255,-82.0032,2.208,5.02,1111122 
SCCF RECON,ioos:station:SCCF:13:1,2019-01-15T18:00:00Z,26.5255,-82.0032,2.177,5.73,1111122 
SCCF RECON,ioos:station:SCCF:13:1,2019-01-15T19:00:00Z,26.5255,-82.0032,2.17,5.87,1111122 
SCCF RECON,ioos:station:SCCF:13:1,2019-01-15T20:00:00Z,26.5255,-82.0032,2.21,5.25,1111122 